Weather History for Hartford, CT

Change the Weather History Date:

Saturday, February 9, 2013

  Actual Average Record
Temperature  
Mean Temperature 23 °F -  
Max Temperature 27 °F 36 °F 54 °F (1990)
Min Temperature 19 °F 14 °F -15 °F (1934)
Degree Days  
Heating Degree Days 42    
Moisture  
Dew Point 13 °F    
Average Humidity 70    
Maximum Humidity 93    
Minimum Humidity 31    
Precipitation  
Precipitation 0.20 in - - ()
Sea Level Pressure  
Sea Level Pressure 29.88 in    
Wind  
Wind Speed 15 mph (NNW)    
Max Wind Speed 21 mph    
Max Gust Speed 31 mph    
Visibility 4 miles    
Events Fog    
Averages and records for this station are not official NWS values.
T = Trace of Precipitation, MM = Missing Value Source: NWS Daily Summary

Daily Weather History Graph

Daily Weather History Graph

Search for Another Location

Airport:

Trip Planner

Search our weather history database for the weather conditions in past years. The results will help you decide how hot, cold, wet, or windy it might be!

Date:

Astronomy

Feb. 09, 2013 Rise Set
Actual Time 6:53 AM EST 5:16 PM EST
Civil Twilight 6:24 AM EST 5:45 PM EST
Nautical Twilight 5:51 AM EST 6:18 PM EST
Astronomical Twilight 5:19 AM EST 6:50 PM EST
Moon 6:03 AM EST (2/9) 4:56 PM EST (2/9)
Length of Visible Light 11h 20m
Length of Day
10h 23m
Waning Crescent, 0% of the Moon is Illuminated
Feb 9
Waning Crescent
Feb 10
New
Feb 17
First Quarter
Feb 25
Full
Mar 4
Last Quarter

Hourly Weather History & Observations

Time (EST) Temp. Windchill Dew Point Humidity Pressure Visibility Wind Dir Wind Speed Gust Speed Precip Events Conditions
12:53 AM 21.0 °F 7.1 °F 19.0 °F 92% 29.69 in 0.2 mi North 16.1 mph 24.2 mph 0.04 in Fog Light Freezing Fog
1:01 AM 21.2 °F 7.3 °F 19.4 °F 93% 29.70 in 0.2 mi NNW 16.1 mph 28.8 mph 0.01 in Fog Light Freezing Fog
1:42 AM 21.2 °F 8.9 °F 19.4 °F 93% 29.70 in 0.5 mi NNW 12.7 mph 27.6 mph 0.03 in Fog Light Freezing Fog
1:51 AM 21.2 °F 7.3 °F 19.4 °F 93% 29.70 in 0.2 mi NNW 16.1 mph 25.3 mph 0.04 in Fog Light Freezing Fog
1:53 AM 21.0 °F 6.2 °F 19.0 °F 92% 29.70 in 0.2 mi NNW 18.4 mph 27.6 mph 0.04 in Fog Light Freezing Fog
2:17 AM 21.2 °F 6.0 °F 19.4 °F 93% 29.71 in 0.2 mi NNW 19.6 mph 29.9 mph 0.01 in Fog Light Freezing Fog
2:53 AM 21.9 °F 7.8 °F 19.9 °F 92% 29.70 in 0.2 mi NNW 17.3 mph 25.3 mph 0.03 in Fog Light Freezing Fog
3:22 AM 23.0 °F 8.7 °F 21.2 °F 93% 29.71 in 0.8 mi NNW 18.4 mph 27.6 mph 0.03 in   Mist
3:29 AM 23.0 °F 10.6 °F 21.2 °F 93% 29.71 in 0.8 mi NNW 13.8 mph 27.6 mph 0.03 in   Mist
3:53 AM 24.1 °F 11.0 °F 21.9 °F 91% 29.72 in 0.8 mi NNW 16.1 mph 21.9 mph 0.04 in   Mist
4:53 AM 25.0 °F 13.1 °F 23.0 °F 92% 29.73 in 0.5 mi NW 13.8 mph - 0.03 in Fog Light Freezing Fog
5:53 AM 25.0 °F 12.2 °F 23.0 °F 92% 29.75 in 0.8 mi NNW 16.1 mph 23.0 mph 0.01 in   Mist
6:05 AM 24.8 °F 14.0 °F 21.2 °F 86% 29.76 in 0.8 mi NNW 11.5 mph 23.0 mph 0.01 in   Mist
6:28 AM 24.8 °F 12.4 °F 21.2 °F 86% 29.77 in 0.5 mi NNW 15.0 mph 21.9 mph 0.01 in Fog Light Freezing Fog
6:53 AM 24.1 °F 10.6 °F 19.9 °F 84% 29.78 in 0.8 mi NNW 17.3 mph 24.2 mph 0.01 in   Mist
7:07 AM 23.0 °F 11.1 °F 21.2 °F 93% 29.79 in 0.8 mi NNW 12.7 mph 20.7 mph N/A   Mist
7:15 AM 23.0 °F 13.9 °F 21.2 °F 93% 29.79 in 1.0 mi NNW 8.1 mph - N/A   Mist
7:29 AM 23.0 °F 12.4 °F 19.4 °F 86% 29.80 in 0.8 mi NNW 10.4 mph 19.6 mph N/A   Overcast
7:40 AM 23.0 °F 10.6 °F 19.4 °F 86% 29.81 in 0.8 mi NW 13.8 mph 20.7 mph N/A   Overcast
7:53 AM 23.0 °F 11.1 °F 18.0 °F 81% 29.82 in 1.2 mi NW 12.7 mph 19.6 mph N/A   Haze
8:44 AM 21.2 °F 7.3 °F 15.8 °F 80% 29.84 in 2.5 mi NW 16.1 mph 25.3 mph N/A   Haze
8:51 AM 21.2 °F 6.8 °F 14.0 °F 74% 29.84 in 5.0 mi NNW 17.3 mph 25.3 mph N/A   Haze
8:53 AM 21.9 °F 9.2 °F 12.9 °F 68% 29.84 in 6.0 mi NW 13.8 mph 25.3 mph N/A   Haze
9:53 AM 23.0 °F 12.4 °F 12.0 °F 63% 29.87 in 9.0 mi NW 10.4 mph 23.0 mph N/A   Overcast
10:53 AM 21.9 °F 8.7 °F 10.9 °F 63% 29.90 in 8.0 mi NW 15.0 mph 27.6 mph N/A   Overcast
11:53 AM 24.1 °F 10.6 °F 10.9 °F 57% 29.92 in 8.0 mi NNW 17.3 mph 27.6 mph N/A   Overcast
12:53 PM 25.0 °F 11.7 °F 8.1 °F 49% 29.94 in 7.0 mi NNW 17.3 mph 26.5 mph N/A   Scattered Clouds
1:53 PM 25.0 °F 12.6 °F 5.0 °F 43% 29.96 in 9.0 mi NNW 15.0 mph 31.1 mph N/A   Clear
2:53 PM 26.1 °F 12.0 °F 3.0 °F 37% 29.98 in 7.0 mi NNW 20.7 mph 31.1 mph N/A   Clear
3:53 PM 27.0 °F 15.6 °F 1.0 °F 33% 30.03 in 10.0 mi NNW 13.8 mph 26.5 mph N/A   Clear
4:53 PM 26.1 °F 12.3 °F -0.9 °F 31% 30.07 in 10.0 mi NNW 19.6 mph 27.6 mph N/A   Clear
5:53 PM 24.1 °F 10.6 °F -0.9 °F 34% 30.12 in 9.0 mi NNW 17.3 mph 29.9 mph N/A   Clear
6:53 PM 24.1 °F 12.0 °F -0.0 °F 35% 30.16 in 10.0 mi NNW 13.8 mph 24.2 mph N/A   Clear
7:53 PM 23.0 °F 10.6 °F 1.0 °F 39% 30.18 in 10.0 mi NNW 13.8 mph 23.0 mph 0.00 in   Clear
8:53 PM 21.9 °F 7.8 °F -0.0 °F 38% 30.21 in 10.0 mi NNW 17.3 mph 23.0 mph N/A   Clear
9:53 PM 21.0 °F 8.6 °F -0.0 °F 40% 30.23 in 10.0 mi NNW 12.7 mph 24.2 mph N/A   Clear
10:53 PM 19.9 °F 7.9 °F -0.9 °F 40% 30.27 in 10.0 mi NNW 11.5 mph 18.4 mph N/A   Clear
11:53 PM 19.0 °F 8.2 °F -2.9 °F 38% 30.29 in 10.0 mi NW 9.2 mph - N/A   Clear